User: anonymous   Login
Location: Vancouver
(49.2500°N, 123.1330°W)
Time: 18:19:31
(UTC-08:00)
Language:

SO-67 - Orbit

View from above orbital plane
View from above orbital plane
View from above satellite
View from above satellite

Ground track
Ground track

The orbit data is extracted from the following two-line orbital elements,

1 35870U 09049F   17343.85817394  .00006679  00000-0  97916-4 0  9992
2 35870  97.0940 359.1477 0003495 107.1544  16.5670 15.55871170460514
Epoch (UTC): 09 December 2017 20:35:46
Eccentricity: 0.0003495
inclination: 97.0940°
perigee height: 397 km
apogee height: 402 km
right ascension of ascending node: 359.1477°
argument of perigee: 107.1544°
revolutions per day: 15.55871170
mean anomaly at epoch: 16.5670°
orbit number at epoch: 46051

The dashed part of the orbit path shows where the satellite is in the earth's shadow,  

DLR